Location: Kumla
(59.1265°N, 15.1401°E)
Time: 07:52:45
(UTC+01:00)

A-11 Canister half - Pass Details

Date: 07 December 2023
Orbit: 1526 x 1682 km, 47.3° (Epoch: 04 March)

Event Time Altitude Azimuth Distance (km) Brightness Sun altitude
Rises 20:26:17 0° 243° (WSW) 4,932 12.1 -38.9°
Reaches altitude 10° 20:29:40 10° 236° (WSW) 3,943 11.4 -39.3°
Enters shadow 20:35:40 34° 208° (SSW) 2,528 10.0 -40.0°
